Search the data

BODC Cruise Metadata Report for RV Jan Mayen cruise JM3

Introduction

This report collates information from the BODC cruise inventory and oceanographic databases. It presents

Cruise Inventory Information

Long name RV Jan Mayen cruise JM3
Short name JM3
Objectives and Narrative ICES Reference Number 1994 58 092
Ship RV Jan Mayen
Departure Port
Departure Date 1994-05-16
Arrival Port
Arrival Date 1994-05-20
Principal Scientist(s) Kurt Tande (University of Tromsų Norwegian College of Fishery Science)
Responsible Organisation University of Tromsų Norwegian College of Fishery Science
Associated Project(s) OMEX
IHB Sea Areas Visited Norwegian Sea
Marsden Squares Visited 251;4/287;2
Work Area Description Norwegian Sea
Unable to lookup cruise bounds at this time
Work Area Bounding Polygon
Southern Limit unknown
Northern Limit unknown
Western Limit unknown
Eastern Limit unknown

Cruise Inventory Datasets

No information on datasets is currently available for this cruise

Cruise Inventory Mooring/Buoy Operations

No information on datasets is currently available

Summary of BODC Data Holdings for the Cruise

National Oceanographic Database

Summary

# Series Instrument Description Parameters
14 Bottle station Nitrate concentration parameters in the water column
Phosphate concentration parameters in the water column
Quality control flags
Reference numbers
Silicate concentration parameters in the water column
Vertical spatial coordinates
14 Bottle station Chlorophyll pigment concentrations in water bodies
Phaeopigment concentrations in the water column
Quality control flags
Reference numbers
Vertical spatial coordinates
59 CTD/STD cast Chlorophyll pigment concentrations in water bodies
Density of the water column
Salinity of the water column
Temperature of the water column
Vertical spatial coordinates
1 CTD/STD cast Chlorophyll pigment concentrations in water bodies
Salinity of the water column
Vertical spatial coordinates

Note: Parameter terms are taken from the BODC Parameter Discovery Vocabulary XML (SKOS)

Full List

BODC Reference Instrument Description Date/Time Location  
890241 CTD/STD cast 1994-05-18 22:00Z 70° 24' N, 17° 13' E Click for more
890253 CTD/STD cast 1994-05-19 10:00Z 69° 57' N, 16° 34' E Click for more
890265 CTD/STD cast 1994-05-16 18:00Z 69° 47' N, 19° 16' E Click for more
890277 CTD/STD cast 1994-05-17 13:00Z 70° 25' N, 17° 10' E Click for more
890289 CTD/STD cast 1994-05-18 10:00Z 70° 13' N, 16° 56' E Click for more
890290 CTD/STD cast 1994-05-19 04:00Z 70° 27' N, 16° 0' E Click for more
890308 CTD/STD cast 1994-05-19 13:30Z 69° 52' N, 17° 30' E Click for more
890321 CTD/STD cast 1994-05-19 14:00Z 69° 49' N, 17° 46' E Click for more
890333 CTD/STD cast 1994-05-19 16:00Z 69° 48' N, 17° 43' E Click for more
890345 CTD/STD cast 1994-05-19 16:30Z 69° 46' N, 17° 40' E Click for more
890357 CTD/STD cast 1994-05-19 19:00Z 69° 47' N, 17° 22' E Click for more
890369 CTD/STD cast 1994-05-19 20:00Z 69° 49' N, 17° 4' E Click for more
890370 CTD/STD cast 1994-05-19 22:00Z 69° 51' N, 16° 46' E Click for more
890382 CTD/STD cast 1994-05-19 23:00Z 69° 52' N, 16° 42' E Click for more
890394 CTD/STD cast 1994-05-19 23:30Z 69° 52' N, 16° 36' E Click for more
890401 CTD/STD cast 1994-05-20 00:00Z 69° 53' N, 16° 31' E Click for more
890413 CTD/STD cast 1994-05-20 01:00Z 69° 54' N, 16° 22' E Click for more
890425 CTD/STD cast 1994-05-20 02:00Z 69° 49' N, 16° 0' E Click for more
890437 CTD/STD cast 1994-05-20 11:00Z 69° 34' N, 15° 19' E Click for more
890449 CTD/STD cast 1994-05-20 13:00Z 69° 34' N, 15° 34' E Click for more
890450 CTD/STD cast 1994-05-20 14:00Z 69° 33' N, 15° 42' E Click for more
890462 CTD/STD cast 1994-05-20 15:00Z 69° 32' N, 15° 49' E Click for more
890474 CTD/STD cast 1994-05-20 15:30Z 69° 32' N, 15° 55' E Click for more
890486 CTD/STD cast 1994-05-20 16:00Z 69° 31' N, 16° 1' E Click for more
890498 CTD/STD cast 1994-05-20 17:00Z 69° 48' N, 16° 13' E Click for more
890505 CTD/STD cast 1994-05-20 18:00Z 69° 46' N, 16° 24' E Click for more
890517 CTD/STD cast 1994-05-20 19:00Z 69° 45' N, 16° 34' E Click for more
890529 CTD/STD cast 1994-05-20 19:30Z 69° 45' N, 16° 40' E Click for more
890530 CTD/STD cast 1994-05-20 20:00Z 69° 44' N, 16° 46' E Click for more
890542 CTD/STD cast 1994-05-20 21:00Z 69° 45' N, 16° 57' E Click for more
890554 CTD/STD cast 1994-05-20 21:30Z 69° 45' N, 17° 7' E Click for more
890566 CTD/STD cast 1994-05-20 22:00Z 69° 44' N, 17° 19' E Click for more
890578 CTD/STD cast 1994-05-20 23:00Z 69° 40' N, 17° 31' E Click for more
890591 CTD/STD cast 1994-05-16 22:00Z 70° 19' N, 18° 57' E Click for more
890609 CTD/STD cast 1994-05-17 01:00Z 70° 21' N, 18° 34' E Click for more
890610 CTD/STD cast 1994-05-17 02:00Z 70° 22' N, 18° 12' E Click for more
890622 CTD/STD cast 1994-05-17 05:00Z 70° 22' N, 17° 54' E Click for more
890634 CTD/STD cast 1994-05-17 06:00Z 70° 23' N, 17° 36' E Click for more
890646 CTD/STD cast 1994-05-17 07:00Z 70° 24' N, 17° 18' E Click for more
890658 CTD/STD cast 1994-05-17 10:00Z 70° 24' N, 17° 13' E Click for more
890671 CTD/STD cast 1994-05-17 18:00Z 70° 24' N, 17° 3' E Click for more
890683 CTD/STD cast 1994-05-17 20:00Z 70° 22' N, 17° 3' E Click for more
890695 CTD/STD cast 1994-05-17 22:00Z 70° 19' N, 17° 1' E Click for more
890702 CTD/STD cast 1994-05-18 00:00Z 70° 18' N, 17° 0' E Click for more
890714 CTD/STD cast 1994-05-18 02:00Z 70° 16' N, 17° 0' E Click for more
890726 CTD/STD cast 1994-05-18 04:00Z 70° 16' N, 17° 0' E Click for more
890738 CTD/STD cast 1994-05-18 06:00Z 70° 15' N, 17° 1' E Click for more
890751 CTD/STD cast 1994-05-18 08:00Z 70° 13' N, 16° 58' E Click for more
890763 CTD/STD cast 1994-05-18 12:00Z 70° 12' N, 16° 54' E Click for more
890775 CTD/STD cast 1994-05-18 14:00Z 70° 10' N, 16° 52' E Click for more
890787 CTD/STD cast 1994-05-18 16:00Z 70° 10' N, 16° 51' E Click for more
890799 CTD/STD cast 1994-05-18 18:00Z 70° 10' N, 16° 51' E Click for more
890806 CTD/STD cast 1994-05-19 00:00Z 70° 25' N, 17° 10' E Click for more
890818 CTD/STD cast 1994-05-19 01:00Z 70° 25' N, 17° 1' E Click for more
890831 CTD/STD cast 1994-05-19 02:00Z 70° 26' N, 16° 31' E Click for more
890843 CTD/STD cast 1994-05-19 08:00Z 69° 58' N, 16° 33' E Click for more
890855 CTD/STD cast 1994-05-19 10:30Z 69° 57' N, 16° 45' E Click for more
890867 CTD/STD cast 1994-05-19 12:00Z 69° 55' N, 16° 51' E Click for more
890879 CTD/STD cast 1994-05-19 12:30Z 69° 55' N, 16° 57' E Click for more
890880 CTD/STD cast 1994-05-19 13:00Z 69° 53' N, 17° 13' E Click for more
1253995 Bottle station 1994-05-16 22:08Z 70° 19' N, 18° 57' E Click for more
1254009 Bottle station 1994-05-17 02:08Z 70° 22' N, 18° 12' E Click for more
1254010 Bottle station 1994-05-17 07:08Z 70° 24' N, 17° 18' E Click for more
1254022 Bottle station 1994-05-17 10:10Z 70° 24' N, 17° 13' E Click for more
1254034 Bottle station 1994-05-17 13:15Z 70° 25' N, 17° 10' E Click for more
1254046 Bottle station 1994-05-18 16:28Z 70° 10' N, 16° 51' E Click for more
1254058 Bottle station 1994-05-19 10:38Z 69° 57' N, 16° 45' E Click for more
1254071 Bottle station 1994-05-19 14:07Z 69° 49' N, 17° 46' E Click for more
1254083 Bottle station 1994-05-19 16:42Z 69° 46' N, 17° 40' E Click for more
1254095 Bottle station 1994-05-19 20:10Z 69° 49' N, 17° 4' E Click for more
1254102 Bottle station 1994-05-19 23:41Z 69° 52' N, 16° 36' E Click for more
1254114 Bottle station 1994-05-20 02:40Z 69° 49' N, 16° 0' E Click for more
1254126 Bottle station 1994-05-20 20:08Z 69° 44' N, 16° 46' E Click for more
1254138 Bottle station 1994-05-20 23:07Z 69° 40' N, 17° 31' E Click for more
1638954 Bottle station 1994-05-16 22:08Z 70° 19' N, 18° 57' E Click for more
1638966 Bottle station 1994-05-17 02:08Z 70° 22' N, 18° 12' E Click for more
1638978 Bottle station 1994-05-17 07:08Z 70° 24' N, 17° 18' E Click for more
1638991 Bottle station 1994-05-17 10:10Z 70° 24' N, 17° 13' E Click for more
1639005 Bottle station 1994-05-17 13:15Z 70° 25' N, 17° 10' E Click for more
1639017 Bottle station 1994-05-18 16:28Z 70° 10' N, 16° 51' E Click for more
1639029 Bottle station 1994-05-19 10:38Z 69° 57' N, 16° 45' E Click for more
1639030 Bottle station 1994-05-19 14:07Z 69° 49' N, 17° 46' E Click for more
1639042 Bottle station 1994-05-19 16:42Z 69° 46' N, 17° 40' E Click for more
1639054 Bottle station 1994-05-19 20:10Z 69° 49' N, 17° 4' E Click for more
1639066 Bottle station 1994-05-19 23:41Z 69° 52' N, 16° 36' E Click for more
1639078 Bottle station 1994-05-20 02:40Z 69° 49' N, 16° 0' E Click for more
1639091 Bottle station 1994-05-20 20:08Z 69° 44' N, 16° 46' E Click for more
1639109 Bottle station 1994-05-20 23:07Z 69° 40' N, 17° 31' E Click for more

Project Database

# Events Gear Type Parameters Held
60 CTD frame plus rosette sampler Biological detritus in the water column suspended particulate material
Particulate total and organic nitrogen concentrations in the water column
Phosphate concentration parameters in the water column
Salinity of the water column
Temperature of the water column
Phytoplankton taxonomic abundance in water bodies
Zooplankton taxonomy-related abundance per unit volume of the water column
Macroalgae generic abundance in water bodies
Silicate concentration parameters in the water column

Density of the water column
Microzooplankton taxonomic abundance in water bodies
Phytoplankton generic abundance in water bodies
Zooplankton non taxonomy-related abundance per unit volume of the water column
Phaeopigment concentrations in the water column
Nitrate concentration parameters in the water column
Terrestrial detritus in the water column suspended particulate material
Chlorophyll pigment concentrations in water bodies
Particulate total and organic carbon concentrations in the water column
1 Drifting rig with sediment traps Sedimentation flux of identified biota in the water column
Sedimentation flux of carbon, nitrogen or organic matter in the water column
Sedimentation flux of pigments in the water column
Sedimentation flux of identified biota expressed as carbon in the water column

Note: Parameter terms are taken from the BODC Parameter Discovery Vocabulary XML (SKOS)

References

Track Charts

No track charts currently available

Reports

No reports currently available